Weather History for Mayport NS, FL

Change the Weather History Date:

Monday, September 16, 2013

  Actual Average Record
Temperature  
Mean Temperature 81 °F -  
Max Temperature 87 °F 83 °F 93 °F (2005)
Min Temperature 75 °F 72 °F 64 °F (2001)
Cooling Degree Days 16    
Growing Degree Days 31 (Base 50)    
Moisture  
Dew Point 74 °F    
Average Humidity 78    
Maximum Humidity 94    
Minimum Humidity 63    
Precipitation  
Precipitation 0.00 in - - ()
Sea Level Pressure  
Sea Level Pressure 30.07 in    
Wind  
Wind Speed 6 mph (ESE)    
Max Wind Speed 13 mph    
Max Gust Speed -    
Visibility 10 miles    
Events      
Averages and records for this station are not official NWS values.
T = Trace of Precipitation, MM = Missing Value Source: NWS Daily Summary

Daily Weather History Graph

Daily Weather History Graph

Search for Another Location

Airport:

Trip Planner

Search our weather history database for the weather conditions in past years. The results will help you decide how hot, cold, wet, or windy it might be!

Date:

Astronomy

Sep. 16, 2013 Rise Set
Actual Time 7:10 AM EDT 7:29 PM EDT
Civil Twilight 6:46 AM EDT 7:53 PM EDT
Nautical Twilight 6:18 AM EDT 8:21 PM EDT
Astronomical Twilight 5:50 AM EDT 8:50 PM EDT
Moon 5:29 PM EDT (9/16) 4:05 AM EDT (9/16)
Length of Visible Light 13h 06m
Length of Day
12h 18m
Waxing Gibbous, 90% of the Moon is Illuminated
Sep 16
Waxing Gibbous
Sep 19
Full
Sep 26
Last Quarter
Oct 4
New
Oct 11
First Quarter

Hourly Weather History & Observations

Time (EDT) Temp. Heat Index Dew Point Humidity Pressure Visibility Wind Dir Wind Speed Gust Speed Precip Events Conditions
12:52 AM 81.0 °F 86.7 °F 75.0 °F 82% 30.09 in 10.0 mi ESE 9.2 mph - N/A   Scattered Clouds
1:52 AM 80.1 °F 84.5 °F 73.9 °F 81% 30.09 in 10.0 mi SSE 5.8 mph - N/A   Clear
2:52 AM 79.0 °F - 73.0 °F 82% 30.07 in 10.0 mi South 3.5 mph - N/A   Clear
3:52 AM 77.0 °F - 73.9 °F 90% 30.06 in 10.0 mi WSW 3.5 mph - N/A   Clear
4:52 AM 77.0 °F - 73.0 °F 88% 30.06 in 10.0 mi Calm Calm - N/A   Clear
5:52 AM 75.9 °F - 73.9 °F 94% 30.07 in 10.0 mi Calm Calm - N/A   Clear
6:09 AM 75.9 °F - 73.9 °F 94% 30.08 in 10.0 mi Calm Calm - N/A   Clear
6:52 AM 77.0 °F - 75.0 °F 94% 30.08 in 10.0 mi Calm Calm - N/A   Partly Cloudy
7:52 AM 77.0 °F - 75.0 °F 94% 30.09 in 10.0 mi Calm Calm - N/A   Partly Cloudy
8:52 AM 82.0 °F 88.6 °F 75.0 °F 79% 30.10 in 10.0 mi Calm Calm - N/A   Scattered Clouds
9:52 AM 84.0 °F 91.2 °F 73.9 °F 72% 30.10 in 10.0 mi ESE 3.5 mph - N/A   Scattered Clouds
10:52 AM 84.9 °F 92.1 °F 73.9 °F 69% 30.11 in 10.0 mi East 5.8 mph - N/A   Scattered Clouds
11:52 AM 87.1 °F 96.3 °F 75.0 °F 67% 30.10 in 10.0 mi ENE 9.2 mph - N/A   Scattered Clouds
12:52 PM 87.1 °F 95.4 °F 73.9 °F 65% 30.09 in 10.0 mi ENE 9.2 mph - N/A   Scattered Clouds
1:52 PM 87.1 °F 95.4 °F 73.9 °F 65% 30.07 in 10.0 mi East 10.4 mph - N/A   Scattered Clouds
2:52 PM 87.1 °F 94.5 °F 73.0 °F 63% 30.05 in 10.0 mi East 11.5 mph - N/A   Scattered Clouds
3:52 PM 87.1 °F 94.5 °F 73.0 °F 63% 30.04 in 10.0 mi East 10.4 mph - N/A   Scattered Clouds
4:52 PM 86.0 °F 93.0 °F 73.0 °F 65% 30.03 in 10.0 mi East 12.7 mph - N/A   Scattered Clouds
5:52 PM 84.0 °F 91.2 °F 73.9 °F 72% 30.03 in 10.0 mi East 9.2 mph - N/A   Scattered Clouds
6:52 PM 82.0 °F 86.7 °F 72.0 °F 71% 30.03 in 10.0 mi ESE 8.1 mph - N/A   Scattered Clouds
7:52 PM 81.0 °F 86.2 °F 73.9 °F 79% 30.04 in 10.0 mi SE 6.9 mph - N/A   Scattered Clouds
8:52 PM 81.0 °F 86.2 °F 73.9 °F 79% 30.06 in 10.0 mi SE 8.1 mph - N/A   Scattered Clouds
9:52 PM 81.0 °F 85.8 °F 73.0 °F 77% 30.06 in 10.0 mi SE 8.1 mph - N/A   Partly Cloudy
10:52 PM 81.0 °F 86.2 °F 73.9 °F 79% 30.06 in 10.0 mi ESE 6.9 mph - N/A   Scattered Clouds
11:52 PM 81.0 °F 86.2 °F 73.9 °F 79% 30.06 in 10.0 mi ESE 5.8 mph - N/A   Partly Cloudy